Date String (YYYY-MM-DD hh:mm:ss) UTC,Instrument flags,absolute air pressure of the measurement (hPa),sample flow rate (lpm),inlet stack bypass flow (lpm),air temperature of the measurement (°C),ambient temperature measured by the external sensor (°C),aerosol sample conditioner tube jacket temperature (°C),OPC LED temperature (°C),internal box temperature (°C),relative humidity of the measurement (%),span deviation,mass concentration of particles derived from Lorenz-Mie calculation of OPC scattering (μg/m³),mass concentration of particles derived from Lorenz-Mie calculation of OPC scattering (μg/m³),mass concentration of particles derived from Lorenz-Mie calculation of OPC scattering (μg/m³)
DateTimeUTC,F1_M11,P_M11,Q1_M11,Q2_M11,T1_M11,T2_M11,T3_M11,T4_M11,T5_M11,U1_M11,ZSPAN_M11,X0_M11,X2_M11,X1_M11
2023-10-10 10:00:00,SystemResetWarning,0824.5,5.00,000.00,029.4,027.8,000.0,037.8,030.9,9.4,0000.0,0003.91,0001.95,0001.65
2023-10-10 10:01:00,SystemResetWarning,0824.5,4.99,000.00,029.3,027.8,000.0,037.8,030.9,9.3,0000.0,0003.84,0001.95,0001.65
2023-10-10 10:02:00,SystemResetWarning,0824.4,5.00,000.00,029.4,027.8,000.0,037.8,030.9,9.1,0000.0,0003.15,0001.97,0001.66
2023-10-10 10:03:00,SystemResetWarning,0824.4,5.01,000.00,029.4,027.8,000.0,037.8,030.9,9.1,0000.0,0003.19,0001.99,0001.67
2023-10-10 10:04:00,SystemResetWarning,0824.5,5.00,000.00,029.4,027.8,000.0,037.8,030.9,8.9,0000.0,0003.24,0002.03,0001.68
2023-10-10 10:05:00,SystemResetWarning,0824.5,5.00,000.00,029.4,027.8,000.0,037.8,030.9,9.1,0000.0,0003.07,0002.02,0001.69
2023-10-10 10:06:00,SystemResetWarning,0824.5,5.00,000.00,029.4,027.8,000.0,037.8,030.9,9.2,0000.0,0003.15,0002.04,0001.71
2023-10-10 10:07:00,SystemResetWarning,0824.5,4.99,000.00,029.4,027.8,000.0,037.8,030.9,9.3,0000.0,0003.35,0002.09,0001.73
2023-10-10 10:08:00,SystemResetWarning,0824.5,5.00,000.00,029.4,027.8,000.0,037.8,030.9,9.3,0000.0,0004.60,0002.13,0001.75
2023-10-10 10:09:00,SystemResetWarning,0824.5,5.00,000.00,029.3,027.8,000.0,037.8,030.9,9.3,0000.0,0004.57,0002.18,0001.77
2023-10-10 10:10:00,SystemResetWarning,0824.5,5.00,000.00,029.3,027.8,000.0,037.8,030.9,9.2,0000.0,0004.38,0002.19,0001.79
2023-10-10 10:11:00,SystemResetWarning,0824.5,5.00,000.00,029.3,027.8,000.0,037.8,030.9,9.2,0000.0,0004.43,0002.20,0001.81
2023-10-10 10:12:00,SystemResetWarning,0824.5,5.01,000.00,029.3,027.8,000.0,037.8,030.9,9.1,0000.0,0004.44,0002.22,0001.82
2023-10-10 10:13:00,SystemResetWarning,0824.4,5.01,000.00,029.3,027.8,000.0,037.8,030.9,9.1,0000.0,0004.30,0002.18,0001.82
2023-10-10 10:14:00,SystemResetWarning,0824.4,5.00,000.00,029.3,027.8,000.0,037.8,030.9,9.0,0000.0,0004.31,0002.18,0001.82
2023-10-10 10:15:00,SystemResetWarning,0824.4,4.99,000.00,029.3,027.8,000.0,037.8,030.9,9.0,0000.0,0004.31,0002.15,0001.80
2023-10-10 10:16:00,SystemResetWarning,0824.4,5.00,000.00,029.3,027.8,000.0,037.8,030.9,9.0,0000.0,0004.53,0002.17,0001.80
2023-10-10 10:17:00,SystemResetWarning,0824.4,5.00,000.00,029.3,027.8,000.0,037.8,030.9,9.0,0000.0,0004.83,0002.17,0001.80
2023-10-10 10:18:00,SystemResetWarning,0824.4,5.00,000.00,029.3,027.8,000.0,037.8,030.9,8.9,0000.0,0004.75,0002.17,0001.79
2023-10-10 10:19:00,SystemResetWarning,0824.4,5.00,000.00,029.3,027.8,000.0,037.8,030.9,8.6,0000.0,0004.00,0002.13,0001.77
2023-10-10 10:20:00,SystemResetWarning,0824.4,5.00,000.00,029.3,027.7,000.0,037.8,030.9,8.6,0000.0,0003.40,0002.09,0001.75
2023-10-10 10:21:00,SystemResetWarning,0824.4,5.01,000.00,029.3,027.7,000.0,037.8,030.9,8.5,0000.0,0003.32,0002.03,0001.73
2023-10-10 10:22:00,SystemResetWarning,0824.4,5.01,000.00,029.3,027.7,000.0,037.8,030.9,8.7,0000.0,0003.13,0001.98,0001.71
2023-10-10 10:23:00,SystemResetWarning,0824.4,4.99,000.00,029.3,027.7,000.0,037.8,030.9,8.8,0000.0,0003.12,0001.96,0001.69
2023-10-10 10:24:00,SystemResetWarning,0824.3,5.00,000.00,029.3,027.7,000.0,037.8,030.9,8.8,0000.0,0003.10,0001.94,0001.68
2023-10-10 10:25:00,SystemResetWarning,0824.4,5.00,000.00,029.3,027.7,000.0,037.8,030.9,8.7,0000.0,0003.19,0001.97,0001.68
2023-10-10 10:26:00,SystemResetWarning,0824.4,5.00,000.00,029.3,027.7,000.0,037.8,030.8,8.8,0000.0,0003.13,0001.99,0001.70
2023-10-10 10:27:00,SystemResetWarning,0824.4,5.00,000.00,029.3,027.7,000.0,037.8,030.8,8.7,0000.0,0003.07,0002.00,0001.71
2023-10-10 10:28:00,SystemResetWarning,0824.3,5.00,000.00,029.3,027.7,000.0,037.8,030.8,8.6,0000.0,0002.69,0001.99,0001.71
2023-10-10 10:29:00,SystemResetWarning,0824.3,5.00,000.00,029.3,027.7,000.0,037.8,030.8,8.7,0000.0,0002.61,0001.99,0001.70
2023-10-10 10:30:00,SystemResetWarning,0824.3,5.00,000.00,029.3,027.7,000.0,037.8,030.8,8.8,0000.0,0002.63,0002.01,0001.71
2023-10-10 10:31:00,SystemResetWarning,0824.3,5.00,000.00,029.3,027.7,000.0,037.8,030.8,8.7,0000.0,0002.65,0002.03,0001.72
2023-10-10 10:32:00,SystemResetWarning,0824.3,5.00,000.00,029.3,027.7,000.0,037.8,030.8,8.7,0000.0,0002.86,0002.05,0001.72
2023-10-10 10:33:00,SystemResetWarning,0824.3,5.00,000.00,029.3,027.7,000.0,037.8,030.8,8.8,0000.0,0002.95,0002.07,0001.72
2023-10-10 10:34:00,SystemResetWarning,0824.3,5.01,000.00,029.3,027.7,000.0,037.8,030.8,8.8,0000.0,0003.15,0002.14,0001.77
2023-10-10 10:35:00,SystemResetWarning,0824.4,5.00,000.00,029.3,027.7,000.0,037.8,030.8,8.7,0000.0,0003.82,0002.31,0001.89
2023-10-10 10:36:00,SystemResetWarning,0824.4,5.01,000.00,029.3,027.7,000.0,037.8,030.8,8.8,0000.0,0004.22,0002.45,0002.01
2023-10-10 10:37:00,SystemResetWarning,0824.4,5.00,000.00,029.3,027.6,000.0,037.8,030.8,8.4,0000.0,0004.67,0002.64,0002.13
2023-10-10 10:38:00,SystemResetWarning,0824.4,5.00,000.00,029.2,027.6,000.0,037.8,030.8,8.2,0000.0,0004.96,0002.77,0002.26
2023-10-10 10:39:00,SystemResetWarning,0824.4,5.00,000.00,029.2,027.6,000.0,037.8,030.8,7.9,0000.0,0005.19,0002.92,0002.36
2023-10-10 10:40:00,SystemResetWarning,0824.3,5.00,000.00,029.2,027.6,000.0,037.8,030.8,7.8,0000.0,0005.69,0003.10,0002.49
2023-10-10 10:41:00,SystemResetWarning,0824.3,5.00,000.00,029.2,027.6,000.0,037.7,030.8,7.7,0000.0,0006.05,0003.16,0002.59
2023-10-10 10:42:00,SystemResetWarning,0824.4,5.00,000.00,029.2,027.6,000.0,037.7,030.7,7.6,0000.0,0006.28,0003.24,0002.70
2023-10-10 10:43:00,SystemResetWarning,0824.3,5.00,000.00,029.2,027.6,000.0,037.7,030.8,7.7,0000.0,0006.37,0003.32,0002.82
2023-10-10 10:44:00,SystemResetWarning,0824.3,5.00,000.00,029.2,027.6,000.0,037.7,030.8,8.3,0000.0,0006.61,0003.41,0002.95
2023-10-10 10:45:00,SystemResetWarning,0824.3,5.00,000.00,029.2,027.6,000.0,037.7,030.8,8.3,0000.0,0007.67,0003.48,0003.06
2023-10-10 10:46:00,SystemResetWarning,0824.3,5.00,000.00,029.2,027.6,000.0,037.7,030.8,8.5,0000.0,0008.29,0003.47,0003.07
2023-10-10 10:47:00,SystemResetWarning,0824.2,5.00,000.00,029.2,027.6,000.0,037.7,030.8,8.6,0000.0,0008.46,0003.48,0003.07
2023-10-10 10:48:00,SystemResetWarning,0824.3,5.00,000.00,029.2,027.7,000.0,037.7,030.8,8.6,0000.0,0008.63,0003.49,0003.07
2023-10-10 10:49:00,SystemResetWarning,0824.3,5.00,000.00,029.2,027.7,000.0,037.7,030.8,8.6,0000.0,0008.69,0003.49,0003.06
2023-10-10 10:50:00,SystemResetWarning,0824.3,5.00,000.00,029.2,027.7,000.0,037.7,030.8,8.0,0000.0,0010.09,0003.47,0003.05
2023-10-10 10:51:00,SystemResetWarning,0824.3,5.00,000.00,029.2,027.7,000.0,037.7,030.8,7.7,0000.0,0010.30,0003.44,0003.05
2023-10-10 10:52:00,SystemResetWarning,0824.3,5.00,000.00,029.2,027.7,000.0,037.7,030.8,7.6,0000.0,0010.10,0003.43,0003.04
2023-10-10 10:53:00,SystemResetWarning,0824.3,5.00,000.00,029.2,027.6,000.0,037.7,030.7,7.7,0000.0,0010.49,0003.42,0003.04
2023-10-10 10:54:00,SystemResetWarning,0824.3,5.00,000.00,029.2,027.6,000.0,037.7,030.7,7.9,0000.0,0010.49,0003.39,0003.03
2023-10-10 10:55:00,SystemResetWarning,0824.4,5.00,000.00,029.2,027.6,000.0,037.7,030.7,7.8,0000.0,0010.58,0003.38,0003.01
2023-10-10 10:56:00,SystemResetWarning,0824.3,5.00,000.00,029.2,027.6,000.0,037.7,030.7,7.7,0000.0,0010.08,0003.36,0002.97
2023-10-10 10:57:00,SystemResetWarning,0824.3,5.00,000.00,029.2,027.6,000.0,037.7,030.7,7.7,0000.0,0009.27,0003.34,0002.91
2023-10-10 10:58:00,SystemResetWarning,0824.3,5.00,000.00,029.2,027.6,000.0,037.7,030.7,7.7,0000.0,0008.79,0003.30,0002.85
2023-10-10 10:59:00,SystemResetWarning,0824.3,5.00,000.00,029.2,027.6,000.0,037.7,030.7,7.6,0000.0,0008.48,0003.26,0002.81
